Wind_Speed
54 54 53 53 53 51 46 41 38 37 37 38 40 40 40 40 40 40 41 42 42 42 43 43 42 42 42 42 43 43 44 43 42 39 40 43 47 51 57 60 62 63 64
53 51 49 51 54 52 48 42 39 38 38 39 40 40 39 38 39 39 40 41 41 42 42 42 41 41 40 39 39 38 38 37 37 37 37 38 41 44 49 54 58 61 61
48 47 45 48 49 47 43 40 39 39 39 39 40 40 41 40 39 39 39 40 40 40 41 41 41 40 38 36 35 34 33 32 31 31 31 33 35 38 41 46 51 56 58
42 40 42 44 43 41 38 36 37 38 38 38 39 41 43 43 42 40 40 39 39 41 41 41 41 40 37 34 34 33 31 30 28 26 25 28 31 34 37 40 44 50 54
36 38 40 39 36 35 36 36 36 36 36 37 40 43 44 44 43 41 40 41 41 43 43 42 41 40 36 34 33 32 31 30 28 25 23 24 27 31 34 36 40 45 51
36 36 34 30 29 32 34 36 37 36 36 38 40 42 44 45 44 43 42 42 43 44 45 43 41 40 38 35 33 32 32 32 30 27 24 22 23 27 30 32 37 43 50
34 31 28 28 28 30 32 34 35 36 37 39 41 42 44 45 45 45 44 43 43 45 45 44 42 41 40 38 34 33 33 34 34 31 28 26 24 24 25 27 31 38 46
32 30 27 24 25 27 29 32 34 35 37 38 40 42 44 46 47 47 45 44 44 45 46 45 44 43 43 40 37 35 35 36 36 36 34 30 28 27 27 26 25 28 36
31 29 26 25 27 29 31 34 36 38 39 39 41 43 45 47 49 48 46 43 43 45 46 45 44 45 44 42 40 38 37 38 38 38 38 37 34 32 32 32 30 29 28
29 28 27 27 28 30 34 37 39 41 42 41 42 44 46 48 49 49 46 43 43 44 45 45 45 45 46 45 44 42 41 40 40 41 41 41 40 38 38 37 35 34 32
29 28 27 27 29 32 37 40 41 42 42 43 45 46 47 48 48 48 46 44 43 43 45 46 46 46 47 47 48 47 46 45 44 44 43 43 43 43 43 43 42 40 37
28 28 27 28 30 33 37 39 41 43 45 46 47 48 47 47 46 45 44 44 43 43 44 45 46 47 48 49 51 52 51 51 50 48 47 46 46 46 47 47 48 47 46
27 27 27 30 32 35 37 39 40 41 43 44 46 46 46 45 44 44 44 44 44 44 45 46 47 48 49 51 53 54 55 55 54 53 52 52 51 51 51 52 52 53 54
28 29 30 33 35 37 40 42 43 43 42 42 43 43 44 44 44 44 45 45 45 45 46 47 49 51 52 54 55 57 59 59 58 58 58 58 58 57 58 59 59 59 59
31 32 34 35 38 40 43 44 44 43 41 41 41 42 43 44 45 45 45 46 47 47 48 50 52 54 56 57 59 60 61 62 62 64 64 64 64 65 65 66 67 67 66
34 35 36 38 41 43 44 44 44 42 41 40 40 41 43 44 46 47 48 49 50 51 53 55 56 58 59 61 62 63 65 66 68 70 71 72 72 73 73 73 74 74 72
34 37 39 41 43 44 44 44 44 43 42 42 42 43 45 47 49 50 51 53 55 56 57 59 60 62 63 65 66 68 70 72 74 76 77 78 79 80 80 79 77 75 73
34 38 41 43 44 44 45 45 45 45 46 47 48 49 50 51 53 54 56 57 58 60 61 63 65 66 68 70 72 74 76 78 80 81 82 83 83 83 81 77 75 72 70
37 39 42 43 44 45 46 47 47 48 49 51 54 56 57 57 58 60 60 62 63 65 68 70 72 73 75 76 78 81 82 84 84 84 83 82 79 77 72 68 65 63 60
38 40 42 44 46 48 49 50 52 54 56 58 59 61 62 63 64 66 68 70 71 73 75 76 78 80 82 83 84 85 86 84 82 79 75 70 66 62 58 54 50 47 44
39 42 44 47 49 51 53 56 58 60 62 63 65 67 69 70 72 74 75 77 79 80 81 82 83 84 85 84 82 80 77 73 68 64 59 53 49 44 40 37 35 32 30
44 46 49 52 54 57 59 62 64 66 68 70 72 74 76 78 80 81 82 83 84 85 85 84 82 79 76 72 67 63 58 54 49 44 39 35 31 28 26 26 25 23 23
50 53 55 58 61 64 66 69 71 74 75 77 79 80 81 82 83 83 83 83 81 79 76 73 68 63 58 53 47 43 39 35 31 27 24 22 20 20 20 20 19 19 20
58 60 63 66 69 71 73 75 77 78 79 80 80 80 79 78 77 74 72 70 67 64 61 57 52 47 43 38 33 29 26 23 21 18 17 16 16 17 17 17 17 17 18
66 68 70 72 74 75 76 76 76 75 74 73 72 70 68 67 65 64 62 60 58 55 52 49 45 41 36 32 27 22 19 17 16 15 15 16 16 17 16 17 17 16 16
71 72 73 73 73 72 71 69 67 65 64 62 61 60 59 57 56 54 52 51 49 47 44 41 38 35 33 30 25 20 16 14 14 16 17 17 19 17 17 19 18 16 15
Wind_Direction
272 272 276 279 280 281 281 273 262 255 254 256 257 262 269 274 277 280 280 279 276 273 272 274 277 279 283 290 298 306 308 300 287 277 269 261 255 252 251 249 244 241 241
275 275 279 276 275 277 277 269 259 254 255 256 257 262 268 274 278 280 281 281 277 272 271 273 275 279 284 291 300 308 311 306 295 284 273 263 257 253 251 250 245 240 239
277 278 273 268 269 272 271 264 258 255 255 256 259 263 267 272 278 280 280 280 277 272 271 273 275 279 284 291 298 305 311 311 306 295 280 265 258 254 250 247 243 238 236
275 268 263 265 269 271 267 262 260 258 256 258 261 263 267 270 275 279 279 277 274 271 272 273 274 278 283 288 293 299 307 312 312 307 290 270 263 258 253 247 240 236 233
264 259 262 269 273 271 266 261 259 258 257 259 262 263 266 270 273 277 279 276 273 271 271 272 272 275 281 286 289 294 300 305 309 311 303 283 271 264 258 249 240 234 231
260 261 268 276 277 272 266 261 259 259 260 262 264 264 265 268 273 276 279 277 272 270 269 270 270 272 276 281 286 291 294 296 300 304 307 302 285 273 265 256 245 236 230
262 266 273 277 276 274 270 265 263 264 266 266 266 267 268 269 273 275 278 278 274 270 267 267 267 268 272 277 283 288 290 292 294 298 300 301 301 292 280 268 255 242 234
261 267 271 275 281 282 278 273 270 271 272 272 272 273 273 274 275 276 277 277 275 270 266 265 265 265 269 274 279 282 286 289 292 294 295 295 293 293 292 289 277 260 244
265 267 268 276 284 286 285 280 275 274 275 276 276 276 277 277 277 277 277 276 274 271 266 264 264 264 267 271 275 278 280 284 288 290 291 292 291 290 290 288 286 280 264
263 264 269 276 285 290 290 287 282 278 276 277 279 279 279 278 278 278 277 276 273 271 268 266 264 264 265 268 272 275 278 281 284 287 289 290 290 289 289 288 285 281 276
261 264 270 279 288 294 294 291 285 280 278 278 280 282 282 280 279 277 276 274 273 271 270 268 266 265 266 269 272 275 277 279 280 282 284 285 287 288 288 287 285 282 278
260 265 273 283 290 295 297 297 291 284 280 280 282 284 284 281 278 276 275 274 272 271 270 269 267 267 268 271 273 276 278 279 280 280 282 283 283 284 285 285 284 281 278
263 270 276 282 287 293 297 298 295 290 286 283 284 284 282 279 277 276 275 274 273 272 271 270 268 268 270 272 274 276 278 279 279 280 281 282 282 282 282 282 281 278 277
266 272 276 281 287 293 297 298 296 292 289 286 284 282 280 278 278 277 276 275 275 274 273 272 271 271 272 274 276 277 278 279 279 280 281 282 282 282 282 282 280 278 275
264 270 277 284 288 293 297 299 296 292 289 286 284 282 280 280 280 279 278 277 277 277 276 276 276 276 277 277 278 278 279 279 280 281 282 282 282 282 283 283 281 279 277
267 273 281 286 290 294 296 296 294 291 289 287 285 283 282 281 280 279 279 279 279 279 279 279 279 279 278 278 279 279 280 281 281 282 283 283 284 284 284 283 282 279 277
274 279 284 288 292 294 294 292 291 289 287 286 284 282 281 280 280 280 280 280 280 280 279 279 279 279 279 279 279 280 281 282 283 284 285 286 286 286 285 283 281 278 274
283 286 289 291 292 292 291 290 289 288 288 287 286 284 283 282 281 280 280 280 280 280 280 280 280 280 280 281 282 282 283 284 284 285 286 286 285 284 283 281 278 274 271
290 291 292 292 291 290 290 289 289 288 288 288 287 287 286 285 284 284 283 283 283 283 283 283 283 282 283 283 283 284 284 285 286 286 286 285 283 281 279 276 272 269 266
294 293 292 291 291 290 290 290 290 289 289 288 287 287 286 286 286 285 285 285 284 284 283 283 283 284 284 284 285 286 286 287 287 286 284 282 279 276 272 269 265 261 258
297 295 294 293 293 293 292 292 291 290 290 289 288 288 287 286 286 285 285 285 284 284 284 285 285 285 285 286 287 287 287 286 285 283 281 278 274 269 264 259 254 249 243
301 300 299 298 297 295 294 293 292 291 291 290 289 289 288 287 287 286 286 286 286 285 285 286 286 287 288 288 288 287 285 284 282 280 276 271 264 257 249 245 239 234 228
305 303 301 300 298 297 295 294 293 293 292 291 290 289 289 288 288 287 287 287 287 287 288 288 287 287 287 286 285 282 280 278 276 272 265 255 245 237 230 226 224 222 219
306 305 303 301 300 298 297 295 294 293 292 291 291 290 290 289 289 289 288 288 287 286 285 285 284 283 281 279 276 273 270 268 265 257 243 228 220 211 210 210 206 204 203
307 306 304 302 300 299 298 297 296 295 294 294 294 293 292 291 290 290 289 287 286 284 282 280 277 274 270 266 264 260 257 254 247 230 211 203 197 192 194 189 181 178 181
309 307 305 304 303 302 302 301 300 300 299 298 297 295 294 293 292 291 289 287 285 282 279 276 272 267 260 254 250 243 239 235 219 200 191 188 182 182 180 172 165 163 167
Height
5566 5564 5563 5562 5561 5560 5560 5560 5560 5562 5564 5567 5569 5571 5572 5571 5570 5569 5567 5566 5564 5564 5564 5564 5563 5562 5559 5555 5549 5543 5535 5527 5525 5528 5528 5529 5531 5534 5539 5544 5551 5558 5566
5551 5550 5550 5549 5548 5548 5548 5548 5549 5550 5553 5555 5558 5559 5560 5560 5559 5557 5555 5554 5553 5553 5552 5552 5551 5550 5548 5543 5538 5532 5525 5518 5514 5514 5515 5515 5517 5519 5523 5527 5533 5540 5549
5537 5536 5536 5535 5535 5535 5535 5536 5537 5539 5541 5544 5546 5548 5548 5548 5547 5546 5544 5543 5542 5541 5541 5540 5540 5538 5536 5532 5527 5522 5516 5509 5505 5503 5503 5503 5504 5505 5508 5512 5516 5524 5532
5525 5524 5523 5523 5524 5524 5525 5526 5527 5528 5530 5532 5534 5535 5536 5536 5535 5534 5532 5532 5531 5530 5530 5529 5528 5527 5525 5521 5517 5513 5508 5502 5498 5495 5494 5494 5494 5495 5495 5498 5502 5508 5517
5513 5513 5513 5513 5514 5514 5515 5516 5517 5518 5519 5521 5522 5523 5524 5524 5523 5522 5520 5520 5519 5519 5518 5517 5517 5516 5513 5510 5507 5504 5500 5496 5492 5489 5487 5486 5486 5485 5485 5486 5490 5495 5504
5503 5503 5504 5504 5504 5504 5504 5505 5507 5508 5509 5509 5510 5510 5511 5511 5511 5510 5508 5507 5506 5506 5505 5504 5504 5503 5501 5499 5497 5495 5492 5488 5485 5482 5480 5479 5478 5476 5476 5476 5479 5484 5492
5493 5493 5494 5494 5494 5494 5494 5495 5496 5497 5498 5497 5497 5498 5498 5498 5498 5498 5495 5493 5492 5492 5491 5491 5491 5490 5489 5488 5487 5485 5482 5478 5476 5475 5474 5473 5472 5471 5469 5469 5470 5473 5480
5482 5484 5485 5485 5485 5484 5484 5484 5485 5486 5486 5486 5485 5485 5485 5485 5485 5484 5482 5479 5478 5478 5478 5478 5477 5477 5477 5477 5477 5475 5472 5468 5466 5465 5465 5465 5465 5464 5463 5463 5463 5465 5470
5473 5474 5475 5476 5476 5475 5475 5475 5475 5474 5474 5474 5473 5472 5472 5471 5471 5470 5469 5466 5464 5464 5463 5464 5464 5464 5464 5464 5464 5463 5462 5459 5457 5454 5453 5453 5455 5455 5455 5455 5456 5457 5460
5464 5465 5466 5466 5466 5465 5464 5463 5462 5462 5461 5460 5460 5459 5458 5457 5456 5454 5454 5452 5451 5449 5449 5449 5449 5450 5450 5449 5450 5450 5449 5448 5447 5444 5442 5441 5441 5442 5443 5444 5446 5447 5449
5456 5456 5457 5456 5456 5454 5453 5452 5450 5449 5448 5447 5446 5445 5444 5442 5440 5439 5438 5438 5437 5436 5435 5435 5434 5434 5434 5434 5434 5434 5434 5435 5435 5433 5432 5430 5428 5428 5429 5429 5431 5433 5436
5446 5447 5447 5446 5445 5444 5442 5440 5438 5436 5435 5433 5432 5430 5429 5427 5425 5424 5423 5422 5422 5422 5421 5420 5420 5419 5419 5419 5418 5418 5417 5418 5418 5419 5418 5417 5416 5415 5415 5415 5415 5416 5419
5437 5437 5437 5437 5436 5434 5432 5429 5427 5424 5421 5419 5416 5414 5413 5412 5410 5409 5408 5407 5407 5406 5406 5405 5405 5404 5403 5403 5402 5402 5401 5400 5400 5400 5401 5400 5400 5400 5400 5401 5401 5402 5403
5428 5428 5428 5427 5425 5423 5420 5417 5414 5410 5407 5404 5402 5400 5398 5396 5395 5394 5393 5392 5391 5390 5390 5389 5388 5388 5387 5386 5385 5384 5383 5381 5381 5380 5381 5381 5380 5381 5381 5381 5383 5385 5386
5419 5419 5418 5416 5414 5411 5408 5404 5401 5397 5393 5391 5389 5387 5384 5382 5380 5379 5377 5376 5375 5374 5373 5372 5371 5369 5368 5367 5366 5365 5363 5362 5360 5359 5359 5359 5359 5358 5359 5359 5359 5361 5363
5410 5409 5407 5405 5402 5399 5395 5392 5388 5384 5381 5378 5375 5373 5370 5368 5366 5364 5362 5360 5358 5356 5355 5353 5352 5350 5349 5348 5346 5344 5342 5340 5338 5337 5335 5334 5333 5333 5333 5333 5332 5333 5335
5401 5399 5396 5393 5389 5385 5382 5378 5375 5371 5368 5365 5362 5359 5356 5354 5351 5348 5345 5343 5340 5338 5335 5333 5331 5330 5328 5326 5324 5322 5319 5316 5313 5311 5309 5306 5305 5304 5303 5303 5303 5302 5303
5390 5387 5384 5380 5376 5372 5368 5365 5361 5357 5353 5349 5346 5343 5340 5337 5333 5330 5327 5324 5321 5318 5315 5313 5310 5307 5305 5302 5299 5296 5294 5290 5287 5284 5281 5278 5276 5274 5273 5272 5271 5270 5271
5378 5375 5371 5367 5363 5359 5355 5350 5346 5342 5338 5334 5329 5325 5321 5317 5313 5309 5306 5302 5299 5295 5292 5288 5285 5282 5279 5276 5273 5270 5267 5263 5259 5256 5253 5249 5246 5244 5244 5243 5243 5242 5243
5367 5363 5359 5355 5350 5345 5340 5335 5330 5325 5320 5316 5311 5306 5301 5296 5292 5287 5282 5278 5274 5270 5267 5263 5259 5255 5252 5249 5245 5241 5237 5233 5229 5226 5223 5220 5218 5217 5217 5218 5219 5221 5224
5357 5352 5346 5341 5335 5329 5323 5317 5312 5306 5301 5295 5289 5283 5277 5272 5267 5262 5256 5251 5246 5242 5238 5234 5230 5226 5223 5220 5216 5212 5208 5204 5201 5198 5196 5195 5194 5196 5197 5200 5203 5207 5211
5344 5338 5331 5325 5318 5311 5305 5298 5291 5284 5277 5271 5264 5257 5249 5243 5237 5231 5226 5221 5216 5211 5207 5203 5200 5196 5193 5191 5188 5184 5181 5179 5177 5176 5176 5177 5179 5182 5185 5189 5194 5198 5204
5329 5322 5315 5307 5299 5291 5283 5274 5266 5258 5249 5241 5234 5226 5219 5212 5206 5200 5194 5189 5184 5179 5175 5173 5171 5170 5168 5167 5166 5165 5163 5162 5163 5163 5165 5167 5170 5174 5179 5183 5189 5194 5199
5313 5304 5295 5285 5276 5266 5256 5247 5237 5228 5219 5211 5203 5195 5188 5181 5175 5169 5164 5160 5156 5153 5150 5150 5149 5150 5150 5151 5151 5151 5152 5152 5153 5155 5158 5161 5165 5170 5175 5180 5185 5190 5196
5293 5282 5271 5260 5249 5238 5228 5218 5208 5198 5189 5180 5172 5165 5158 5152 5147 5143 5138 5135 5132 5130 5129 5130 5131 5133 5135 5137 5139 5141 5143 5144 5146 5149 5153 5158 5163 5168 5173 5178 5182 5188 5193
5269 5257 5244 5232 5220 5209 5199 5189 5180 5171 5162 5155 5147 5140 5134 5129 5124 5119 5115 5112 5110 5109 5109 5110 5112 5115 5119 5124 5128 5132 5135 5138 5141 5145 5150 5155 5161 5167 5172 5176 5181 5186 5192